Weather History for Kirksville, MO

Change the Weather History Date:

Sunday, December 30, 2012

  Actual Average Record
Temperature  
Mean Temperature 27 °F 26 °F  
Max Temperature 39 °F 35 °F 66 °F (1965)
Min Temperature 15 °F 18 °F -6 °F (1983)
Degree Days  
Heating Degree Days 38 39  
Month to date heating degree days 935 1084  
Since 1 July heating degree days 2205 2305  
Cooling Degree Days 0 0  
Month to date cooling degree days 0 0  
Year to date cooling degree days 1321 939  
Moisture  
Dew Point 19 °F    
Average Humidity 70    
Maximum Humidity 88    
Minimum Humidity 52    
Precipitation  
Precipitation 0.00 in 0.04 in 0.81 in (1971)
Month to date precipitation 1.67 1.71  
Year to date precipitation 28.09 39.27  
Sea Level Pressure  
Sea Level Pressure 30.27 in    
Wind  
Wind Speed 9 mph (SSW)    
Max Wind Speed 18 mph    
Max Gust Speed 25 mph    
Visibility 9 miles    
Events      
T = Trace of Precipitation, MM = Missing Value Source: NWS Daily Summary

Daily Weather History Graph

Daily Weather History Graph

Search for Another Location

Airport:

Trip Planner

Search our weather history database for the weather conditions in past years. The results will help you decide how hot, cold, wet, or windy it might be!

Date:

Astronomy

Dec. 30, 2012 Rise Set
Actual Time 7:32 AM CST 4:54 PM CST
Civil Twilight 7:01 AM CST 5:24 PM CST
Nautical Twilight 6:27 AM CST 5:58 PM CST
Astronomical Twilight 5:54 AM CST 6:31 PM CST
Moon 7:25 PM CST (12/30) 8:41 AM CST (12/30)
Length of Visible Light 10h 22m
Length of Day
9h 21m
Waning Gibbous, 95% of the Moon is Illuminated
Dec 30
Waning Gibbous
Jan 4
Last Quarter
Jan 11
New
Jan 18
First Quarter
Jan 26
Full

Hourly Weather History & Observations

Time (CST) Temp. Windchill Dew Point Humidity Pressure Visibility Wind Dir Wind Speed Gust Speed Precip Events Conditions
12:55 AM 19.0 °F 12.3 °F 14.0 °F 81% 30.32 in 10.0 mi WSW 4.6 mph - N/A   Clear
1:55 AM 19.9 °F 12.1 °F 14.0 °F 78% 30.35 in 10.0 mi WSW 5.8 mph - N/A   Clear
2:55 AM 18.0 °F 12.7 °F 14.0 °F 84% 30.37 in 9.0 mi SW 3.5 mph - N/A   Clear
3:55 AM 17.1 °F 11.7 °F 14.0 °F 88% 30.35 in 8.0 mi SW 3.5 mph - N/A   Clear
4:55 AM 17.1 °F 10.0 °F 12.9 °F 84% 30.36 in 7.0 mi SW 4.6 mph - N/A   Clear
5:55 AM 17.1 °F 7.6 °F 12.9 °F 84% 30.37 in 7.0 mi SSW 6.9 mph - N/A   Clear
6:55 AM 17.1 °F 10.0 °F 12.9 °F 84% 30.37 in 7.0 mi SSW 4.6 mph - N/A   Clear
7:55 AM 16.0 °F 10.4 °F 12.9 °F 88% 30.36 in 6.0 mi SSW 3.5 mph - N/A   Clear
8:55 AM 23.0 °F 13.9 °F 18.0 °F 81% 30.37 in 10.0 mi SW 8.1 mph - N/A   Clear
9:55 AM 27.0 °F 19.5 °F 18.0 °F 69% 30.37 in 10.0 mi SSW 6.9 mph - N/A   Clear
10:55 AM 32.0 °F 24.2 °F 19.9 °F 61% 30.37 in 10.0 mi SSW 9.2 mph - N/A   Clear
11:55 AM 34.0 °F 28.0 °F 21.0 °F 59% 30.32 in 10.0 mi SSW 6.9 mph - N/A   Clear
12:55 PM 37.0 °F 30.4 °F 23.0 °F 57% 30.27 in 10.0 mi SSW 9.2 mph - N/A   Clear
1:55 PM 37.0 °F 29.8 °F 24.1 °F 59% 30.25 in 10.0 mi South 10.4 mph - N/A   Clear
2:55 PM 39.0 °F 31.4 °F 25.0 °F 57% 30.24 in 10.0 mi South 12.7 mph - N/A   Clear
3:55 PM 37.9 °F 30.0 °F 24.1 °F 57% 30.22 in 10.0 mi South 12.7 mph 20.7 mph N/A   Clear
4:55 PM 37.0 °F 29.8 °F 24.1 °F 59% 30.19 in 10.0 mi South 10.4 mph - N/A   Clear
5:55 PM 37.0 °F 29.8 °F 24.1 °F 59% 30.17 in 10.0 mi South 10.4 mph - N/A   Clear
6:55 PM 37.9 °F 29.2 °F 23.0 °F 55% 30.16 in 10.0 mi South 15.0 mph 23.0 mph N/A   Clear
7:55 PM 37.0 °F 28.5 °F 21.9 °F 54% 30.17 in 10.0 mi SSW 13.8 mph 23.0 mph N/A   Clear
8:55 PM 37.0 °F 28.5 °F 21.0 °F 52% 30.15 in 10.0 mi SSW 13.8 mph 23.0 mph N/A   Clear
9:55 PM 37.0 °F 30.4 °F 21.0 °F 52% 30.14 in 10.0 mi SSW 9.2 mph - N/A   Clear
10:55 PM 37.0 °F 30.4 °F 21.0 °F 52% 30.14 in 10.0 mi SW 9.2 mph - N/A   Clear
11:55 PM 37.0 °F 29.3 °F 19.9 °F 50% 30.13 in 10.0 mi SW 11.5 mph 20.7 mph N/A   Clear